EW6511 Weather Reports


Display with metric or nautical units.
time (UTC)temp
F
wind
direction
speed
MPH
gust
MPH
rain 1hr
in
rain 24hr
in
rain mn
in
humidity
%
barometer
mb
20260505191032 52 169 3.0 5.0 0.00 0.08 0.08 75 1011.4
20260505190042 52 169 1.0 4.0 0.00 0.08 0.08 74 1011.4
20260505185032 53 169 3.0 6.0 0.00 0.08 0.08 73 1011.3
20260505184028 53 163 3.0 6.0 0.00 0.08 0.08 73 1011.2
20260505183028 54 163 3.0 6.0 0.00 0.08 0.08 73 1011.0
20260505182030 54 207 3.0 8.0 0.00 0.08 0.08 72 1011.0
20260505181029 55 183 4.0 6.0 0.00 0.08 0.08 72 1011.0
20260505180026 55 193 3.0 6.0 0.00 0.08 0.08 72 1011.0
20260505175026 56 232 4.0 10.0 0.00 0.08 0.08 71 1011.0
20260505174027 56 215 4.0 10.0 0.00 0.08 0.08 71 1011.2
20260505173025 55 282 7.0 11.0 0.00 0.08 0.08 71 1011.2
20260505172026 55 280 10.0 16.0 0.00 0.08 0.08 71 1011.0
20260505171025 55 280 8.0 15.0 0.00 0.08 0.08 72 1011.2
20260505170027 55 285 2.0 8.0 0.00 0.08 0.08 76 1011.3
20260505165026 56 232 1.0 3.0 0.00 0.08 0.08 75 1011.2
20260505164024 56 245 1.0 3.0 0.00 0.08 0.08 75 1011.3
20260505163022 57 245 1.0 4.0 0.00 0.08 0.08 75 1011.3
20260505162022 57 230 1.0 3.0 0.00 0.08 0.08 76 1011.3
20260505161023 55 207 1.0 3.0 0.00 0.08 0.08 78 1011.0
20260505153019 54 228 5.0 11.0 0.00 0.08 0.08 78 1010.9
20260505152020 54 269 9.0 16.0 0.00 0.08 0.08 77 1011.0
20260505125020 54 251 5.0 13.0 0.00 0.17 0.08 79 1011.3
20260505123014 55 291 5.0 9.0 0.00 0.17 0.08 79 1011.2
20260505122015 55 291 5.0 9.0 0.00 0.17 0.08 79 1011.0
20260505121013 55 288 6.0 9.0 0.00 0.17 0.08 78 1011.2
20260505120015 55 285 7.0 9.0 0.00 0.17 0.08 78 1011.0
20260505115014 56 272 5.0 9.0 0.00 0.17 0.08 78 1011.0
20260505114014 56 254 3.0 7.0 0.00 0.17 0.08 78 1011.0
20260505113014 55 248 4.0 9.0 0.00 0.17 0.08 79 1011.2
20260505112014 55 273 4.0 7.0 0.00 0.17 0.08 79 1011.2
20260505111028 54 275 4.0 7.0 0.00 0.17 0.08 80 1011.2
20260505101011 53 261 3.0 6.0 0.01 0.17 0.08 82 1011.2
20260505100011 53 258 3.0 6.0 0.01 0.17 0.08 82 1011.2
20260505095012 53 277 2.0 3.0 0.01 0.17 0.08 81 1011.0
20260505094009 53 313 3.0 5.0 0.01 0.17 0.08 82 1011.3
20260505093007 53 318 3.0 5.0 0.01 0.17 0.08 82 1011.2
20260505092007 52 304 3.0 5.0 0.00 0.17 0.07 82 1011.0
20260505090005 52 297 3.0 5.0 0.00 0.17 0.07 82 1011.2
20260505085004 52 18 2.0 4.0 0.00 0.17 0.07 82 1011.3
20260505084004 52 14 1.0 4.0 0.00 0.17 0.07 82 1011.0
20260505083006 52 13 0.0 0.0 0.00 0.17 0.07 83 1010.7
20260505082004 52 153 0.0 0.0 0.00 0.17 0.07 84 1010.9
20260505080958 51 155 0.0 0.0 0.00 0.17 0.07 84 1010.9
20260505075957 51 211 0.0 0.0 0.00 0.17 0.07 84 1011.2
20260505074956 51 211 0.0 0.0 0.00 0.17 0.07 85 1011.2
20260505073956 51 211 0.0 0.0 0.00 0.17 0.07 85 1011.4
20260505072958 0 211 0.0 0.0 0.00 0.17 0.07 1011.5
20260505071909 0 0.0 0.0 0.02 0.17 0.07 1011.6
20260505070910 0 0.0 0.0 0.02 0.17 0.07 1011.8
20260505065818 0 0.0 0.0 0.02 0.17 0.07 1011.9
20260505064809 49 211 0.0 0.0 0.03 0.17 0.07 85 1012.0
20260505063803 49 211 0.0 0.0 0.04 0.17 0.07 85 1012.1
20260505062801 49 211 0.0 0.0 0.05 0.17 0.07 85 1012.2
20260505061801 0 0.0 0.0 0.03 0.14 0.05 1012.3
20260505060718 49 211 0.0 0.0 0.04 0.14 0.05 85 1012.3
20260505055715 49 211 0.0 0.0 0.04 0.14 0.05 85 1012.5
20260505054705 49 211 0.0 0.0 0.03 0.13 0.04 85 1012.5
20260505052705 48 211 0.0 0.0 0.02 0.12 0.02 85 1012.4
20260505051707 48 268 0.0 0.0 0.01 0.11 0.02 85 1012.3
20260505050706 48 237 0.0 0.0 0.00 0.10 0.01 85 1012.4
20260505041703 48 155 0.0 1.0 0.00 0.10 0.01 85 1012.4
20260505035703 48 233 0.0 0.0 0.01 0.10 0.01 85 1012.2
20260505034702 48 232 0.0 1.0 0.01 0.10 0.01 85 1012.3
20260505033657 48 218 0.0 3.0 0.01 0.10 0.01 85 1012.5
20260505032657 48 218 0.0 3.0 0.01 0.10 0.01 85 1012.5
20260505031657 48 183 0.0 1.0 0.01 0.10 0.01 85 1012.6
20260505025656 48 232 0.0 2.0 0.00 0.09 0.00 85 1012.6
20260505024657 48 232 1.0 4.0 0.00 0.09 0.00 85 1012.6
20260505023657 48 239 0.0 2.0 0.00 0.09 0.00 85 1012.9
20260505022656 48 239 1.0 3.0 0.00 0.09 0.00 85 1012.9
20260505021659 47 253 1.0 3.0 0.00 0.09 0.00 85 1012.9
20260505020651 48 54 0.0 2.0 0.00 0.09 0.00 85 1012.9
20260505015651 48 54 0.0 0.0 0.00 0.09 0.00 85 1012.9
20260505014650 48 54 0.0 0.0 0.00 0.09 0.00 85 1012.9
20260505013650 48 54 0.0 1.0 0.00 0.09 0.00 85 1012.9
20260505012650 48 53 0.0 0.0 0.00 0.09 0.00 85 1012.9
20260505010652 47 53 0.0 0.0 0.00 0.09 0.00 84 1013.0
20260505005652 48 53 0.0 0.0 0.00 0.09 0.00 84 1013.0
20260505004652 48 53 0.0 0.0 0.00 0.09 0.00 85 1013.2
20260505003645 47 53 0.0 0.0 0.00 0.09 0.00 84 1013.4
20260505002644 47 53 0.0 1.0 0.00 0.09 0.00 84 1013.6
20260505001645 47 53 1.0 2.0 0.00 0.09 0.00 84 1013.7
20260505000643 47 53 0.0 0.0 0.00 0.09 0.00 84 1013.8
20260504235644 47 53 0.0 0.0 0.00 0.09 0.00 84 1013.9
20260504233645 47 53 0.0 1.0 0.00 0.09 0.00 84 1014.1
20260504232644 47 53 0.0 0.0 0.00 0.09 0.00 84 1014.0
20260504230639 47 53 0.0 2.0 0.00 0.09 0.00 84 1014.4
20260504225638 47 53 0.0 2.0 0.00 0.09 0.00 84 1014.5
20260504222636 47 53 0.0 3.0 0.00 0.09 0.00 84 1014.7
20260504221636 48 53 0.0 0.0 0.00 0.09 0.00 84 1014.8
20260504220637 48 53 0.0 0.0 0.00 0.09 0.00 84 1014.7
20260504215634 47 53 0.0 0.0 0.00 0.09 0.09 83 1014.7
20260504214636 48 53 0.0 0.0 0.00 0.09 0.09 83 1014.8
20260504212632 48 53 0.0 0.0 0.00 0.09 0.09 83 1014.9
20260504211629 48 53 1.0 3.0 0.00 0.09 0.09 83 1015.0
20260504205627 49 53 0.0 0.0 0.00 0.09 0.09 83 1015.2
20260504204629 50 53 1.0 2.0 0.00 0.09 0.09 83 1015.1
20260504203622 50 53 1.0 3.0 0.00 0.09 0.09 82 1015.3
20260504202622 50 53 3.0 3.0 0.00 0.09 0.09 82 1015.3
20260504201622 51 46 2.0 3.0 0.00 0.09 0.09 81 1015.4
20260504200622 51 43 1.0 2.0 0.00 0.09 0.09 80 1015.6
20260504195623 51 43 1.0 3.0 0.00 0.09 0.09 80 1015.5
20260504194623 51 119 0.0 3.0 0.00 0.09 0.09 80 1015.4
20260504193621 51 121 2.0 4.0 0.00 0.09 0.09 80 1015.4
20260504192623 51 121 3.0 4.0 0.00 0.09 0.09 80 1015.3